TimeMDT,TemperatureF,Dew PointF,Humidity,Sea Level PressureIn,VisibilityMPH,Wind Direction,Wind SpeedMPH,Gust SpeedMPH,PrecipitationIn,Events,Conditions,WindDirDegrees,DateUTC
12:55 AM,54.0,46.0,75,29.50,10.0,Variable,4.6,-,N/A,,Clear,0,2011-10-07 06:55:00
1:55 AM,55.0,44.1,67,29.52,10.0,SSW,11.5,-,N/A,,Partly Cloudy,210,2011-10-07 07:55:00
2:55 AM,53.1,42.1,66,29.54,10.0,SSW,11.5,-,N/A,,Clear,200,2011-10-07 08:55:00
3:55 AM,50.0,41.0,71,29.54,10.0,South,13.8,-,N/A,,Clear,190,2011-10-07 09:55:00
4:55 AM,54.0,30.9,41,29.54,10.0,SW,21.9,-,N/A,,Clear,220,2011-10-07 10:55:00
5:55 AM,52.0,30.9,45,29.54,10.0,SSW,17.3,25.3,N/A,,Clear,210,2011-10-07 11:55:00
6:55 AM,52.0,30.9,45,29.55,10.0,SSW,20.7,31.1,N/A,,Clear,200,2011-10-07 12:55:00
7:55 AM,55.0,28.0,35,29.54,10.0,South,25.3,31.1,N/A,,Clear,190,2011-10-07 13:55:00
8:55 AM,59.0,26.1,28,29.53,10.0,SSW,27.6,38.0,N/A,,Clear,200,2011-10-07 14:55:00
9:55 AM,64.0,26.1,24,29.52,10.0,SW,32.2,49.5,N/A,,Clear,220,2011-10-07 15:55:00
10:55 AM,66.0,27.0,23,29.56,10.0,WSW,36.8,55.2,N/A,,Clear,240,2011-10-07 16:55:00
11:55 AM,69.1,28.0,22,29.55,10.0,SW,31.1,47.2,N/A,,Clear,220,2011-10-07 17:55:00
12:55 PM,70.0,30.0,23,29.58,10.0,SW,34.5,49.5,N/A,,Clear,230,2011-10-07 18:55:00
1:55 PM,72.0,32.0,23,29.58,10.0,SW,34.5,44.9,N/A,,Clear,230,2011-10-07 19:55:00
2:55 PM,72.0,35.1,26,29.60,10.0,WSW,31.1,40.3,N/A,,Clear,250,2011-10-07 20:55:00
3:55 PM,73.0,33.1,23,29.63,10.0,WSW,28.8,41.4,N/A,,Clear,240,2011-10-07 21:55:00
4:55 PM,72.0,33.1,24,29.65,10.0,WSW,16.1,29.9,N/A,,Clear,250,2011-10-07 22:55:00
5:55 PM,68.0,34.0,28,29.69,10.0,WSW,11.5,-,N/A,,Clear,240,2011-10-07 23:55:00
6:55 PM,60.1,35.1,39,29.74,10.0,WSW,5.8,-,N/A,,Clear,240,2011-10-08 00:55:00
8:55 PM,53.1,39.9,61,29.79,10.0,NW,8.1,-,N/A,,Clear,320,2011-10-08 02:55:00
9:55 PM,50.0,37.9,63,29.83,10.0,South,4.6,-,N/A,,Clear,180,2011-10-08 03:55:00
10:55 PM,46.9,39.0,74,29.84,10.0,West,5.8,-,N/A,,Clear,270,2011-10-08 04:55:00
11:55 PM,45.0,37.9,76,29.87,10.0,Calm,Calm,-,N/A,,Clear,0,2011-10-08 05:55:00